{"data":{"norad_id":61574,"intl_designator":"2024-187A","name":"STARLINK-11356 [DTC]","alt_names":[],"object_type":"PAYLOAD","status":"ACTIVE","operator":null,"country":"US","launch_date":"2024-10-18","launch_site_code":"AFETR","launch_vehicle":null,"mission":null,"orbit_class":"UNKNOWN","rcs_meters":null,"size_class":null,"mass_kg":null,"dimensions":null,"purposes":["comms"],"wikipedia_slug":null,"has_3d_model":false,"image_url":null,"decayed_at":null,"tle_current":{"epoch":"2026-05-24T20:40:26.114304Z","epoch_age_seconds":80391,"freshness":"FRESH","line1":"1 61574U 24187A   26144.86141336  .00002547  00000+0  25865-4 0  9991","line2":"2 61574  53.1603 280.7752 0000663  35.1019 325.0042 15.69716746 92748","mean_motion":15.69716746,"eccentricity":6.63e-5,"inclination_deg":53.1603,"raan_deg":280.7752,"arg_perigee_deg":35.1019,"mean_anomaly_deg":325.0042,"bstar":2.5865e-5,"rev_number":9274,"period_min":91.736295969923,"perigee_km":359.26072693238,"apogee_km":360.15416510592,"semimajor_km":6737.8444460191,"source":"CELESTRAK","updated_at":"2026-05-25T13:38:19.401348Z"}}}